Location: Wapato
(46.4478°N, 120.4212°W)
Time: 23:43:47
(UTC+00:00)

Vanguard 1 Rocket - Pass Details

Date: 17 May 2026
Orbit: 656 x 4211 km, 34.3° (Epoch: 7 June)

Event Time Altitude Azimuth Distance (km) Brightness Sun altitude
Rises 06:17:42 0° 274° (W) 6,947 12.3 -20.4°
Reaches altitude 10° 06:24:26 10° 258° (WSW) 6,498 11.9 -20.9°
Maximum altitude 06:36:40 18° 225° (SW) 6,488 11.5 -21.7°
Enters shadow 06:48:26 12° 196° (SSW) 7,210 11.5 -22.3°
